Time,TemperatureF,DewpointF,PressureIn,WindDirection,WindDirectionDegrees,WindSpeedMPH,WindSpeedGustMPH,Humidity,HourlyPrecipIn,Conditions,Clouds,dailyrainin,SoftwareType,DateUTC
2013-08-26 00:05:00,62.6,57.4,30.41,SSE,167,0.0,5.0,83,0.00,,,0.00,Wunderground v.1.15,2013-08-26 04:05:00,
2013-08-26 00:10:00,62.6,57.4,30.41,SSE,167,0.0,5.0,83,0.00,,,0.00,Wunderground v.1.15,2013-08-26 04:10:00,
2013-08-26 00:15:00,62.6,57.4,30.40,SSE,167,0.0,5.0,83,0.00,,,0.00,Wunderground v.1.15,2013-08-26 04:15:00,
2013-08-26 00:20:00,62.7,57.5,30.40,SSE,167,0.0,5.0,83,0.00,,,0.00,Wunderground v.1.15,2013-08-26 04:20:00,
2013-08-26 00:25:00,62.6,57.4,30.40,SSE,167,0.0,5.0,83,0.00,,,0.00,Wunderground v.1.15,2013-08-26 04:25:00,
2013-08-26 00:30:00,62.6,57.4,30.40,SSE,167,0.0,5.0,83,0.00,,,0.00,Wunderground v.1.15,2013-08-26 04:30:00,
2013-08-26 00:35:00,62.5,57.3,30.40,SSE,167,0.0,5.0,83,0.00,,,0.00,Wunderground v.1.15,2013-08-26 04:35:00,
2013-08-26 00:40:00,62.5,57.6,30.40,SSE,167,0.0,5.0,84,0.00,,,0.00,Wunderground v.1.15,2013-08-26 04:40:00,
2013-08-26 00:45:00,62.4,57.2,30.40,SSE,167,0.0,5.0,83,0.00,,,0.00,Wunderground v.1.15,2013-08-26 04:45:00,
2013-08-26 00:50:00,62.4,56.8,30.40,SSE,167,0.0,5.0,82,0.00,,,0.00,Wunderground v.1.15,2013-08-26 04:50:00,
2013-08-26 00:55:00,62.3,56.7,30.40,SSE,167,0.0,5.0,82,0.00,,,0.00,Wunderground v.1.15,2013-08-26 04:55:00,
2013-08-26 01:05:00,62.3,56.7,30.40,SSE,167,0.0,5.0,82,0.00,,,0.00,Wunderground v.1.15,2013-08-26 05:05:00,
2013-08-26 01:10:00,62.3,56.7,30.40,SSE,167,0.0,5.0,82,0.00,,,0.00,Wunderground v.1.15,2013-08-26 05:10:00,
2013-08-26 01:15:00,62.2,56.3,30.40,SSE,167,0.0,5.0,81,0.00,,,0.00,Wunderground v.1.15,2013-08-26 05:15:00,
2013-08-26 01:20:00,62.2,56.6,30.40,SSE,167,0.0,5.0,82,0.00,,,0.00,Wunderground v.1.15,2013-08-26 05:20:00,
2013-08-26 01:25:00,62.2,56.6,30.40,SSE,167,0.0,5.0,82,0.00,,,0.00,Wunderground v.1.15,2013-08-26 05:25:00,
2013-08-26 01:30:00,62.1,56.5,30.40,SSE,167,0.0,5.0,82,0.00,,,0.00,Wunderground v.1.15,2013-08-26 05:30:00,
2013-08-26 01:35:00,62.1,56.5,30.39,SSE,167,0.0,5.0,82,0.00,,,0.00,Wunderground v.1.15,2013-08-26 05:35:00,
2013-08-26 01:40:00,62.1,56.5,30.39,SSE,167,0.0,5.0,82,0.00,,,0.00,Wunderground v.1.15,2013-08-26 05:40:00,
2013-08-26 01:45:00,62.0,56.4,30.39,SSE,167,0.0,5.0,82,0.00,,,0.00,Wunderground v.1.15,2013-08-26 05:45:00,
2013-08-26 01:50:00,62.0,56.4,30.39,SSE,167,0.0,5.0,82,0.00,,,0.00,Wunderground v.1.15,2013-08-26 05:50:00,
2013-08-26 01:55:00,62.0,56.8,30.39,SSE,167,0.0,5.0,83,0.00,,,0.00,Wunderground v.1.15,2013-08-26 05:55:00,
2013-08-26 02:05:00,61.9,56.7,30.38,SSE,167,0.0,5.0,83,0.00,,,0.00,Wunderground v.1.15,2013-08-26 06:05:00,
2013-08-26 02:10:00,61.8,56.6,30.38,SSE,167,0.0,5.0,83,0.00,,,0.00,Wunderground v.1.15,2013-08-26 06:10:00,
2013-08-26 02:15:00,61.7,56.5,30.38,SSE,167,0.0,5.0,83,0.00,,,0.00,Wunderground v.1.15,2013-08-26 06:15:00,
2013-08-26 02:20:00,61.6,56.4,30.37,SSE,167,0.0,5.0,83,0.00,,,0.00,Wunderground v.1.15,2013-08-26 06:20:00,
2013-08-26 02:25:00,61.6,56.4,30.37,SSE,167,0.0,5.0,83,0.00,,,0.00,Wunderground v.1.15,2013-08-26 06:25:00,
2013-08-26 02:30:00,61.5,56.6,30.37,SSE,167,0.0,5.0,84,0.00,,,0.00,Wunderground v.1.15,2013-08-26 06:30:00,
2013-08-26 02:40:00,61.2,56.7,30.36,SSE,167,0.0,5.0,85,0.00,,,0.00,Wunderground v.1.15,2013-08-26 06:40:00,
2013-08-26 02:45:00,61.1,56.2,30.36,SSE,167,0.0,5.0,84,0.00,,,0.00,Wunderground v.1.15,2013-08-26 06:45:00,
2013-08-26 02:50:00,61.1,56.2,30.36,SSE,167,0.0,5.0,84,0.00,,,0.00,Wunderground v.1.15,2013-08-26 06:50:00,
2013-08-26 02:55:00,61.0,56.5,30.36,SSE,167,0.0,5.0,85,0.00,,,0.00,Wunderground v.1.15,2013-08-26 06:55:00,
2013-08-26 03:05:00,60.6,56.7,30.36,SSE,167,0.0,5.0,87,0.00,,,0.00,Wunderground v.1.15,2013-08-26 07:05:00,
2013-08-26 03:10:00,60.4,56.5,30.36,SSE,167,0.0,5.0,87,0.00,,,0.00,Wunderground v.1.15,2013-08-26 07:10:00,
2013-08-26 03:15:00,60.4,56.5,30.36,SSE,167,0.0,5.0,87,0.00,,,0.00,Wunderground v.1.15,2013-08-26 07:15:00,
2013-08-26 03:20:00,60.2,56.3,30.36,SSE,167,0.0,5.0,87,0.00,,,0.00,Wunderground v.1.15,2013-08-26 07:20:00,
2013-08-26 03:25:00,60.1,56.5,30.36,SSE,167,0.0,5.0,88,0.00,,,0.00,Wunderground v.1.15,2013-08-26 07:25:00,
2013-08-26 03:30:00,59.9,56.3,30.36,SSE,167,0.0,5.0,88,0.00,,,0.00,Wunderground v.1.15,2013-08-26 07:30:00,
2013-08-26 03:35:00,59.7,56.1,30.36,SSE,167,0.0,5.0,88,0.00,,,0.00,Wunderground v.1.15,2013-08-26 07:35:00,
2013-08-26 03:45:00,59.6,56.0,30.36,SSE,167,0.0,5.0,88,0.00,,,0.00,Wunderground v.1.15,2013-08-26 07:45:00,
2013-08-26 03:50:00,59.7,55.8,30.36,SSE,167,0.0,5.0,87,0.00,,,0.00,Wunderground v.1.15,2013-08-26 07:50:00,
2013-08-26 03:55:00,59.7,55.8,30.36,SSE,167,0.0,5.0,87,0.00,,,0.00,Wunderground v.1.15,2013-08-26 07:55:00,
2013-08-26 04:05:00,59.6,56.0,30.36,SSE,167,0.0,5.0,88,0.00,,,0.00,Wunderground v.1.15,2013-08-26 08:05:00,
2013-08-26 04:10:00,59.5,55.9,30.36,SSE,167,0.0,5.0,88,0.00,,,0.00,Wunderground v.1.15,2013-08-26 08:10:00,
2013-08-26 04:15:00,59.4,56.2,30.36,SSE,167,0.0,5.0,89,0.00,,,0.00,Wunderground v.1.15,2013-08-26 08:15:00,
2013-08-26 04:20:00,59.3,56.1,30.37,SSE,167,0.0,5.0,89,0.00,,,0.00,Wunderground v.1.15,2013-08-26 08:20:00,
2013-08-26 04:25:00,59.1,55.9,30.36,SSE,167,0.0,5.0,89,0.00,,,0.00,Wunderground v.1.15,2013-08-26 08:25:00,
2013-08-26 04:30:00,59.0,55.8,30.36,SSE,167,0.0,5.0,89,0.00,,,0.00,Wunderground v.1.15,2013-08-26 08:30:00,
2013-08-26 04:35:00,58.9,55.7,30.36,SSE,167,0.0,5.0,89,0.00,,,0.00,Wunderground v.1.15,2013-08-26 08:35:00,
2013-08-26 04:40:00,58.9,55.7,30.36,SSE,167,0.0,5.0,89,0.00,,,0.00,Wunderground v.1.15,2013-08-26 08:40:00,
2013-08-26 04:45:00,58.9,56.0,30.36,SSE,167,0.0,5.0,90,0.00,,,0.00,Wunderground v.1.15,2013-08-26 08:45:00,
2013-08-26 04:50:00,59.0,56.1,30.36,SSE,167,0.0,5.0,90,0.00,,,0.00,Wunderground v.1.15,2013-08-26 08:50:00,
2013-08-26 05:05:00,58.9,56.3,30.35,SSE,167,0.0,5.0,91,0.00,,,0.00,Wunderground v.1.15,2013-08-26 09:05:00,
2013-08-26 05:10:00,58.8,55.9,30.35,SSE,167,0.0,5.0,90,0.00,,,0.00,Wunderground v.1.15,2013-08-26 09:10:00,
2013-08-26 05:15:00,58.7,56.1,30.35,SSE,167,0.0,5.0,91,0.00,,,0.00,Wunderground v.1.15,2013-08-26 09:15:00,
2013-08-26 05:20:00,58.6,56.0,30.35,SSE,167,0.0,5.0,91,0.00,,,0.00,Wunderground v.1.15,2013-08-26 09:20:00,
2013-08-26 05:25:00,58.4,56.1,30.35,SSE,167,0.0,5.0,92,0.00,,,0.00,Wunderground v.1.15,2013-08-26 09:25:00,
2013-08-26 05:30:00,58.2,55.9,30.35,SSE,167,0.0,5.0,92,0.00,,,0.00,Wunderground v.1.15,2013-08-26 09:30:00,
2013-08-26 05:35:00,58.1,55.8,30.35,SSE,167,0.0,5.0,92,0.00,,,0.00,Wunderground v.1.15,2013-08-26 09:35:00,
2013-08-26 05:40:00,57.9,55.9,30.35,SSE,167,0.0,5.0,93,0.00,,,0.00,Wunderground v.1.15,2013-08-26 09:40:00,
2013-08-26 05:50:00,57.6,55.6,30.35,SSE,167,0.0,5.0,93,0.00,,,0.00,Wunderground v.1.15,2013-08-26 09:50:00,
2013-08-26 05:55:00,57.5,55.8,30.35,SSE,167,0.0,5.0,94,0.00,,,0.00,Wunderground v.1.15,2013-08-26 09:55:00,
2013-08-26 06:05:00,57.3,55.6,30.35,SSE,167,0.0,5.0,94,0.00,,,0.00,Wunderground v.1.15,2013-08-26 10:05:00,
2013-08-26 06:10:00,57.3,55.6,30.35,SSE,167,0.0,5.0,94,0.00,,,0.00,Wunderground v.1.15,2013-08-26 10:10:00,
2013-08-26 06:15:00,57.3,55.9,30.35,SSE,167,0.0,5.0,95,0.00,,,0.00,Wunderground v.1.15,2013-08-26 10:15:00,
2013-08-26 06:20:00,57.2,55.5,30.35,SSE,167,0.0,5.0,94,0.00,,,0.00,Wunderground v.1.15,2013-08-26 10:20:00,
2013-08-26 06:25:00,57.1,55.7,30.35,SSE,167,0.0,5.0,95,0.00,,,0.00,Wunderground v.1.15,2013-08-26 10:25:00,
2013-08-26 06:30:00,56.9,55.5,30.35,SSE,167,0.0,5.0,95,0.00,,,0.00,Wunderground v.1.15,2013-08-26 10:30:00,
2013-08-26 06:40:00,56.7,55.3,30.36,SSE,167,0.0,5.0,95,0.00,,,0.00,Wunderground v.1.15,2013-08-26 10:40:00,
2013-08-26 06:45:00,56.7,55.6,30.36,SSE,167,0.0,5.0,96,0.00,,,0.00,Wunderground v.1.15,2013-08-26 10:45:00,
2013-08-26 06:50:00,56.7,55.6,30.36,SSE,167,0.0,5.0,96,0.00,,,0.00,Wunderground v.1.15,2013-08-26 10:50:00,
2013-08-26 06:55:00,56.7,55.6,30.36,SSE,167,0.0,5.0,96,0.00,,,0.00,Wunderground v.1.15,2013-08-26 10:55:00,
2013-08-26 07:05:00,56.7,55.6,30.36,SSE,167,0.0,5.0,96,0.00,,,0.00,Wunderground v.1.15,2013-08-26 11:05:00,
2013-08-26 07:10:00,56.7,55.6,30.36,SSE,167,0.0,5.0,96,0.00,,,0.00,Wunderground v.1.15,2013-08-26 11:10:00,
2013-08-26 07:15:00,56.6,55.5,30.36,SSE,167,0.0,5.0,96,0.00,,,0.00,Wunderground v.1.15,2013-08-26 11:15:00,
2013-08-26 07:20:00,56.7,55.6,30.36,SSE,167,0.0,5.0,96,0.00,,,0.00,Wunderground v.1.15,2013-08-26 11:20:00,
2013-08-26 07:25:00,56.9,56.1,30.36,SSE,167,0.0,5.0,97,0.00,,,0.00,Wunderground v.1.15,2013-08-26 11:25:00,
2013-08-26 07:30:00,57.1,56.3,30.36,SSE,167,0.0,5.0,97,0.00,,,0.00,Wunderground v.1.15,2013-08-26 11:30:00,
2013-08-26 07:35:00,57.1,56.3,30.36,SSE,167,0.0,5.0,97,0.00,,,0.00,Wunderground v.1.15,2013-08-26 11:35:00,
2013-08-26 07:40:00,57.2,56.4,30.36,SSE,167,0.0,5.0,97,0.00,,,0.00,Wunderground v.1.15,2013-08-26 11:40:00,
2013-08-26 07:45:00,57.2,56.4,30.37,SSE,167,0.0,5.0,97,0.00,,,0.00,Wunderground v.1.15,2013-08-26 11:45:00,
2013-08-26 07:50:00,57.2,56.4,30.37,SSE,167,0.0,5.0,97,0.00,,,0.00,Wunderground v.1.15,2013-08-26 11:50:00,
2013-08-26 07:55:00,57.3,56.5,30.37,SSE,167,0.0,5.0,97,0.00,,,0.00,Wunderground v.1.15,2013-08-26 11:55:00,
2013-08-26 08:05:00,57.6,56.8,30.37,SSE,167,0.0,5.0,97,0.00,,,0.00,Wunderground v.1.15,2013-08-26 12:05:00,
2013-08-26 08:10:00,57.7,56.9,30.37,SSE,167,0.0,5.0,97,0.00,,,0.00,Wunderground v.1.15,2013-08-26 12:10:00,
2013-08-26 08:15:00,57.8,57.0,30.37,SSE,167,0.0,5.0,97,0.00,,,0.00,Wunderground v.1.15,2013-08-26 12:15:00,
2013-08-26 08:20:00,57.9,57.1,30.37,SSE,167,0.0,5.0,97,0.00,,,0.00,Wunderground v.1.15,2013-08-26 12:20:00,
2013-08-26 08:25:00,58.0,56.9,30.37,SSE,167,0.0,5.0,96,0.00,,,0.00,Wunderground v.1.15,2013-08-26 12:25:00,
2013-08-26 08:30:00,58.0,56.9,30.37,SSE,167,0.0,5.0,96,0.00,,,0.00,Wunderground v.1.15,2013-08-26 12:30:00,
2013-08-26 08:35:00,58.1,57.3,30.37,SSE,167,0.0,5.0,97,0.00,,,0.00,Wunderground v.1.15,2013-08-26 12:35:00,
2013-08-26 08:45:00,58.2,57.1,30.37,SSE,167,0.0,5.0,96,0.00,,,0.00,Wunderground v.1.15,2013-08-26 12:45:00,
2013-08-26 08:50:00,58.2,57.1,30.37,SSE,167,0.0,5.0,96,0.00,,,0.00,Wunderground v.1.15,2013-08-26 12:50:00,
2013-08-26 08:55:00,58.3,57.2,30.37,SSE,167,0.0,5.0,96,0.00,,,0.00,Wunderground v.1.15,2013-08-26 12:55:00,
2013-08-26 09:05:00,58.5,57.4,30.37,ESE,120,0.0,5.0,96,0.00,,,0.00,Wunderground v.1.15,2013-08-26 13:05:00,
2013-08-26 09:10:00,58.6,57.2,30.38,ESE,121,0.0,5.0,95,0.00,,,0.00,Wunderground v.1.15,2013-08-26 13:10:00,
2013-08-26 09:20:00,58.9,57.5,30.37,ESE,119,0.0,5.0,95,0.00,,,0.00,Wunderground v.1.15,2013-08-26 13:20:00,
2013-08-26 09:25:00,59.1,57.7,30.38,ESE,119,0.0,5.0,95,0.00,,,0.00,Wunderground v.1.15,2013-08-26 13:25:00,
2013-08-26 09:30:00,59.4,57.7,30.38,ESE,119,0.0,5.0,94,0.00,,,0.00,Wunderground v.1.15,2013-08-26 13:30:00,
2013-08-26 09:35:00,59.6,57.9,30.38,ESE,119,0.0,5.0,94,0.00,,,0.00,Wunderground v.1.15,2013-08-26 13:35:00,
2013-08-26 09:40:00,60.1,58.1,30.39,ESE,119,0.0,5.0,93,0.00,,,0.00,Wunderground v.1.15,2013-08-26 13:40:00,
2013-08-26 09:45:00,60.6,58.6,30.39,ESE,119,0.0,5.0,93,0.00,,,0.00,Wunderground v.1.15,2013-08-26 13:45:00,
2013-08-26 09:50:00,61.2,58.9,30.38,ESE,115,0.0,5.0,92,0.00,,,0.00,Wunderground v.1.15,2013-08-26 13:50:00,
2013-08-26 09:55:00,61.8,59.1,30.38,ESE,115,0.0,5.0,91,0.00,,,0.00,Wunderground v.1.15,2013-08-26 13:55:00,
2013-08-26 10:05:00,63.1,59.5,30.38,SSW,206,0.0,5.0,88,0.00,,,0.00,Wunderground v.1.15,2013-08-26 14:05:00,
2013-08-26 10:10:00,63.6,60.0,30.39,SSW,206,0.0,5.0,88,0.00,,,0.00,Wunderground v.1.15,2013-08-26 14:10:00,
2013-08-26 10:15:00,64.2,59.9,30.39,ESE,115,0.0,5.0,86,0.00,,,0.00,Wunderground v.1.15,2013-08-26 14:15:00,
2013-08-26 10:20:00,64.7,60.1,30.39,East,88,1.0,5.0,85,0.00,,,0.00,Wunderground v.1.15,2013-08-26 14:20:00,
2013-08-26 10:25:00,65.2,60.6,30.39,NNE,19,1.0,1.0,85,0.00,,,0.00,Wunderground v.1.15,2013-08-26 14:25:00,
2013-08-26 10:30:00,65.7,61.1,30.39,NNE,19,0.0,5.0,85,0.00,,,0.00,Wunderground v.1.15,2013-08-26 14:30:00,
2013-08-26 10:35:00,66.2,61.6,30.39,East,84,0.0,5.0,85,0.00,,,0.00,Wunderground v.1.15,2013-08-26 14:35:00,
2013-08-26 10:40:00,66.9,61.6,30.39,WSW,248,1.0,5.0,83,0.00,,,0.00,Wunderground v.1.15,2013-08-26 14:40:00,
2013-08-26 10:45:00,67.0,61.3,30.39,South,178,1.0,5.0,82,0.00,,,0.00,Wunderground v.1.15,2013-08-26 14:45:00,
2013-08-26 10:50:00,67.0,61.3,30.39,South,178,1.0,5.0,82,0.00,,,0.00,Wunderground v.1.15,2013-08-26 14:50:00,
2013-08-26 10:55:00,67.3,61.6,30.39,SW,217,1.0,1.0,82,0.00,,,0.00,Wunderground v.1.15,2013-08-26 14:55:00,
2013-08-26 11:05:00,67.7,62.0,30.39,SSE,160,1.0,1.0,82,0.00,,,0.00,Wunderground v.1.15,2013-08-26 15:05:00,
2013-08-26 11:10:00,68.0,62.3,30.39,SSE,160,1.0,5.0,82,0.00,,,0.00,Wunderground v.1.15,2013-08-26 15:10:00,
2013-08-26 11:15:00,68.3,62.2,30.39,SSE,159,1.0,5.0,81,0.00,,,0.00,Wunderground v.1.15,2013-08-26 15:15:00,
2013-08-26 11:20:00,68.6,62.5,30.38,SSE,147,1.0,5.0,81,0.00,,,0.00,Wunderground v.1.15,2013-08-26 15:20:00,
2013-08-26 11:25:00,68.9,62.5,30.38,SW,220,1.0,1.0,80,0.00,,,0.00,Wunderground v.1.15,2013-08-26 15:25:00,
2013-08-26 11:30:00,69.1,62.7,30.38,South,184,1.0,2.0,80,0.00,,,0.00,Wunderground v.1.15,2013-08-26 15:30:00,
2013-08-26 11:35:00,69.7,63.3,30.38,SSE,153,1.0,5.0,80,0.00,,,0.00,Wunderground v.1.15,2013-08-26 15:35:00,
2013-08-26 11:40:00,70.1,62.9,30.37,SSW,195,1.0,5.0,78,0.00,,,0.00,Wunderground v.1.15,2013-08-26 15:40:00,
2013-08-26 11:45:00,70.6,63.0,30.37,SSW,196,1.0,1.0,77,0.00,,,0.00,Wunderground v.1.15,2013-08-26 15:45:00,
2013-08-26 11:50:00,70.6,62.7,30.37,ESE,111,1.0,5.0,76,0.00,,,0.00,Wunderground v.1.15,2013-08-26 15:50:00,
2013-08-26 11:55:00,70.7,63.1,30.37,SW,230,1.0,5.0,77,0.00,,,0.00,Wunderground v.1.15,2013-08-26 15:55:00,
2013-08-26 12:05:00,71.6,63.3,30.36,SE,134,1.0,1.0,75,0.00,,,0.00,Wunderground v.1.15,2013-08-26 16:05:00,
2013-08-26 12:10:00,71.3,62.2,30.36,SSE,151,1.0,2.0,73,0.00,,,0.00,Wunderground v.1.15,2013-08-26 16:10:00,
2013-08-26 12:15:00,71.6,62.5,30.36,SSE,165,1.0,5.0,73,0.00,,,0.00,Wunderground v.1.15,2013-08-26 16:15:00,
2013-08-26 12:20:00,71.2,62.5,30.36,SW,223,2.0,5.0,74,0.00,,,0.00,Wunderground v.1.15,2013-08-26 16:20:00,
2013-08-26 12:25:00,71.4,62.7,30.35,South,184,1.0,1.0,74,0.00,,,0.00,Wunderground v.1.15,2013-08-26 16:25:00,
2013-08-26 12:30:00,71.7,63.0,30.36,SE,144,1.0,5.0,74,0.00,,,0.00,Wunderground v.1.15,2013-08-26 16:30:00,
2013-08-26 12:35:00,71.8,62.7,30.35,South,169,1.0,5.0,73,0.00,,,0.00,Wunderground v.1.15,2013-08-26 16:35:00,
2013-08-26 12:40:00,72.2,63.1,30.35,South,169,1.0,5.0,73,0.00,,,0.00,Wunderground v.1.15,2013-08-26 16:40:00,
2013-08-26 12:45:00,72.9,63.7,30.35,South,169,1.0,5.0,73,0.00,,,0.00,Wunderground v.1.15,2013-08-26 16:45:00,
2013-08-26 12:50:00,72.9,63.7,30.34,SSE,161,1.0,5.0,73,0.00,,,0.00,Wunderground v.1.15,2013-08-26 16:50:00,
2013-08-26 12:55:00,72.9,63.3,30.34,South,186,1.0,5.0,72,0.00,,,0.00,Wunderground v.1.15,2013-08-26 16:55:00,
2013-08-26 13:05:00,73.3,62.9,30.34,SSE,160,1.0,5.0,70,0.00,,,0.00,Wunderground v.1.15,2013-08-26 17:05:00,
2013-08-26 13:10:00,73.4,63.4,30.34,SSE,160,1.0,5.0,71,0.00,,,0.00,Wunderground v.1.15,2013-08-26 17:10:00,
2013-08-26 13:15:00,73.8,63.4,30.33,SSE,157,1.0,5.0,70,0.00,,,0.00,Wunderground v.1.15,2013-08-26 17:15:00,
2013-08-26 13:20:00,74.4,64.0,30.33,West,277,1.0,5.0,70,0.00,,,0.00,Wunderground v.1.15,2013-08-26 17:20:00,
2013-08-26 13:25:00,74.6,62.9,30.33,South,173,1.0,5.0,67,0.00,,,0.00,Wunderground v.1.15,2013-08-26 17:25:00,
2013-08-26 13:30:00,74.6,63.3,30.33,SSE,161,1.0,5.0,68,0.00,,,0.00,Wunderground v.1.15,2013-08-26 17:30:00,
2013-08-26 13:35:00,74.4,64.4,30.33,SSE,161,1.0,5.0,71,0.00,,,0.00,Wunderground v.1.15,2013-08-26 17:35:00,
2013-08-26 13:40:00,74.8,62.2,30.33,SSE,155,1.0,5.0,65,0.00,,,0.00,Wunderground v.1.15,2013-08-26 17:40:00,
2013-08-26 13:45:00,74.8,63.1,30.32,South,169,2.0,2.0,67,0.00,,,0.00,Wunderground v.1.15,2013-08-26 17:45:00,
2013-08-26 13:50:00,74.5,61.5,30.32,SE,129,2.0,5.0,64,0.00,,,0.00,Wunderground v.1.15,2013-08-26 17:50:00,
2013-08-26 13:55:00,74.5,62.8,30.32,SSE,155,2.0,2.0,67,0.00,,,0.00,Wunderground v.1.15,2013-08-26 17:55:00,
2013-08-26 14:05:00,74.9,62.3,30.32,South,190,1.0,1.0,65,0.00,,,0.00,Wunderground v.1.15,2013-08-26 18:05:00,
2013-08-26 14:10:00,75.3,63.6,30.32,South,190,1.0,3.0,67,0.00,,,0.00,Wunderground v.1.15,2013-08-26 18:10:00,
2013-08-26 14:15:00,75.6,63.0,30.32,SSW,207,1.0,5.0,65,0.00,,,0.00,Wunderground v.1.15,2013-08-26 18:15:00,
2013-08-26 14:20:00,75.7,63.1,30.31,WSW,242,1.0,5.0,65,0.00,,,0.00,Wunderground v.1.15,2013-08-26 18:20:00,
2013-08-26 14:25:00,75.9,62.8,30.31,SSE,158,1.0,5.0,64,0.00,,,0.00,Wunderground v.1.15,2013-08-26 18:25:00,
2013-08-26 14:30:00,76.0,62.9,30.31,SSE,158,1.0,5.0,64,0.00,,,0.00,Wunderground v.1.15,2013-08-26 18:30:00,
2013-08-26 14:35:00,75.7,64.0,30.30,SSE,158,0.0,5.0,67,0.00,,,0.00,Wunderground v.1.15,2013-08-26 18:35:00,
2013-08-26 14:40:00,75.7,62.2,30.31,SSE,157,1.0,5.0,63,0.00,,,0.00,Wunderground v.1.15,2013-08-26 18:40:00,
2013-08-26 14:45:00,75.9,63.7,30.30,South,177,1.0,5.0,66,0.00,,,0.00,Wunderground v.1.15,2013-08-26 18:45:00,
2013-08-26 14:50:00,76.1,64.3,30.30,SW,222,1.0,5.0,67,0.00,,,0.00,Wunderground v.1.15,2013-08-26 18:50:00,
2013-08-26 14:55:00,76.1,63.9,30.30,SSW,196,1.0,5.0,66,0.00,,,0.00,Wunderground v.1.15,2013-08-26 18:55:00,
2013-08-26 15:05:00,76.2,63.6,30.29,SSW,202,1.0,5.0,65,0.00,,,0.00,Wunderground v.1.15,2013-08-26 19:05:00,
2013-08-26 15:10:00,75.9,62.8,30.29,SE,131,1.0,5.0,64,0.00,,,0.00,Wunderground v.1.15,2013-08-26 19:10:00,
2013-08-26 15:15:00,75.9,63.7,30.28,SE,131,0.0,5.0,66,0.00,,,0.00,Wunderground v.1.15,2013-08-26 19:15:00,
2013-08-26 15:20:00,76.6,62.1,30.28,East,90,0.0,5.0,61,0.00,,,0.00,Wunderground v.1.15,2013-08-26 19:20:00,
2013-08-26 15:25:00,76.9,62.4,30.28,SSE,149,1.0,5.0,61,0.00,,,0.00,Wunderground v.1.15,2013-08-26 19:25:00,
2013-08-26 15:30:00,76.6,62.1,30.27,SSE,150,2.0,5.0,61,0.00,,,0.00,Wunderground v.1.15,2013-08-26 19:30:00,
2013-08-26 15:35:00,76.6,63.5,30.28,SSE,150,1.0,1.0,64,0.00,,,0.00,Wunderground v.1.15,2013-08-26 19:35:00,
2013-08-26 15:40:00,76.4,62.4,30.27,South,175,1.0,5.0,62,0.00,,,0.00,Wunderground v.1.15,2013-08-26 19:40:00,
2013-08-26 15:45:00,76.2,62.7,30.27,South,174,1.0,5.0,63,0.00,,,0.00,Wunderground v.1.15,2013-08-26 19:45:00,
2013-08-26 15:50:00,76.2,63.6,30.27,SSE,154,1.0,5.0,65,0.00,,,0.00,Wunderground v.1.15,2013-08-26 19:50:00,
2013-08-26 15:55:00,76.0,62.9,30.27,SE,140,1.0,5.0,64,0.00,,,0.00,Wunderground v.1.15,2013-08-26 19:55:00,
2013-08-26 16:05:00,75.8,62.3,30.26,South,182,1.0,5.0,63,0.00,,,0.00,Wunderground v.1.15,2013-08-26 20:05:00,
2013-08-26 16:10:00,75.7,61.3,30.26,SSW,205,1.0,5.0,61,0.00,,,0.00,Wunderground v.1.15,2013-08-26 20:10:00,
2013-08-26 16:15:00,75.8,62.3,30.26,SSE,151,1.0,5.0,63,0.00,,,0.00,Wunderground v.1.15,2013-08-26 20:15:00,
2013-08-26 16:20:00,75.9,63.3,30.26,SE,138,1.0,5.0,65,0.00,,,0.00,Wunderground v.1.15,2013-08-26 20:20:00,
2013-08-26 16:30:00,76.2,63.6,30.26,SE,135,1.0,5.0,65,0.00,,,0.00,Wunderground v.1.15,2013-08-26 20:30:00,
2013-08-26 16:35:00,76.3,63.7,30.26,SSE,168,1.0,5.0,65,0.00,,,0.00,Wunderground v.1.15,2013-08-26 20:35:00,
2013-08-26 16:40:00,76.0,63.4,30.25,SE,137,2.0,5.0,65,0.00,,,0.00,Wunderground v.1.15,2013-08-26 20:40:00,
2013-08-26 16:45:00,76.0,64.2,30.25,SE,137,1.0,1.0,67,0.00,,,0.00,Wunderground v.1.15,2013-08-26 20:45:00,
2013-08-26 16:50:00,76.1,63.5,30.25,SSW,196,1.0,5.0,65,0.00,,,0.00,Wunderground v.1.15,2013-08-26 20:50:00,
2013-08-26 16:55:00,76.0,63.4,30.25,SSW,196,1.0,5.0,65,0.00,,,0.00,Wunderground v.1.15,2013-08-26 20:55:00,
2013-08-26 17:05:00,76.0,63.4,30.25,SSW,197,1.0,5.0,65,0.00,,,0.00,Wunderground v.1.15,2013-08-26 21:05:00,
2013-08-26 17:10:00,75.9,64.2,30.25,SSW,197,1.0,5.0,67,0.00,,,0.00,Wunderground v.1.15,2013-08-26 21:10:00,
2013-08-26 17:15:00,75.8,63.2,30.25,SSW,197,1.0,1.0,65,0.00,,,0.00,Wunderground v.1.15,2013-08-26 21:15:00,
2013-08-26 17:20:00,75.6,63.9,30.25,SSE,165,1.0,5.0,67,0.00,,,0.00,Wunderground v.1.15,2013-08-26 21:20:00,
2013-08-26 17:25:00,75.4,63.7,30.24,SSE,160,1.0,5.0,67,0.00,,,0.00,Wunderground v.1.15,2013-08-26 21:25:00,
2013-08-26 17:30:00,75.7,64.0,30.24,SSE,160,1.0,5.0,67,0.00,,,0.00,Wunderground v.1.15,2013-08-26 21:30:00,
2013-08-26 17:35:00,76.0,62.9,30.24,SSW,198,0.0,5.0,64,0.00,,,0.00,Wunderground v.1.15,2013-08-26 21:35:00,
2013-08-26 17:40:00,76.2,64.0,30.24,SSW,198,0.0,5.0,66,0.00,,,0.00,Wunderground v.1.15,2013-08-26 21:40:00,
2013-08-26 17:45:00,76.2,64.9,30.24,SW,236,1.0,1.0,68,0.00,,,0.00,Wunderground v.1.15,2013-08-26 21:45:00,
2013-08-26 17:50:00,76.3,64.5,30.24,South,190,1.0,5.0,67,0.00,,,0.00,Wunderground v.1.15,2013-08-26 21:50:00,
2013-08-26 17:55:00,75.9,63.7,30.24,SSE,166,1.0,1.0,66,0.00,,,0.00,Wunderground v.1.15,2013-08-26 21:55:00,
2013-08-26 18:05:00,75.7,65.2,30.24,SSE,166,1.0,5.0,70,0.00,,,0.00,Wunderground v.1.15,2013-08-26 22:05:00,
2013-08-26 18:10:00,75.7,64.8,30.24,SSE,166,0.0,5.0,69,0.00,,,0.00,Wunderground v.1.15,2013-08-26 22:10:00,
2013-08-26 18:15:00,75.8,64.9,30.23,SSE,166,0.0,5.0,69,0.00,,,0.00,Wunderground v.1.15,2013-08-26 22:15:00,
2013-08-26 18:20:00,76.0,65.5,30.23,SSE,166,0.0,5.0,70,0.00,,,0.00,Wunderground v.1.15,2013-08-26 22:20:00,
2013-08-26 18:30:00,75.8,65.3,30.23,SSE,166,0.0,5.0,70,0.00,,,0.00,Wunderground v.1.15,2013-08-26 22:30:00,
2013-08-26 18:35:00,75.6,64.7,30.23,SSE,166,0.0,5.0,69,0.00,,,0.00,Wunderground v.1.15,2013-08-26 22:35:00,
2013-08-26 18:40:00,75.6,65.5,30.23,SSE,166,0.0,5.0,71,0.00,,,0.00,Wunderground v.1.15,2013-08-26 22:40:00,
2013-08-26 18:45:00,75.4,64.9,30.23,SSE,166,0.0,5.0,70,0.00,,,0.00,Wunderground v.1.15,2013-08-26 22:45:00,
2013-08-26 18:50:00,75.3,66.0,30.23,SSE,166,0.0,5.0,73,0.00,,,0.00,Wunderground v.1.15,2013-08-26 22:50:00,
2013-08-26 18:55:00,75.2,65.9,30.23,SSE,166,0.0,5.0,73,0.00,,,0.00,Wunderground v.1.15,2013-08-26 22:55:00,
2013-08-26 19:05:00,74.5,64.5,30.23,SSE,166,0.0,5.0,71,0.00,,,0.00,Wunderground v.1.15,2013-08-26 23:05:00,
2013-08-26 19:10:00,74.0,64.8,30.22,SSE,166,0.0,5.0,73,0.00,,,0.00,Wunderground v.1.15,2013-08-26 23:10:00,
2013-08-26 19:15:00,73.6,64.4,30.23,SSE,166,0.0,5.0,73,0.00,,,0.00,Wunderground v.1.15,2013-08-26 23:15:00,
2013-08-26 19:20:00,73.2,64.4,30.22,SSE,166,0.0,5.0,74,0.00,,,0.00,Wunderground v.1.15,2013-08-26 23:20:00,
2013-08-26 19:25:00,72.5,64.5,30.22,SSE,166,0.0,5.0,76,0.00,,,0.00,Wunderground v.1.15,2013-08-26 23:25:00,
2013-08-26 19:30:00,71.8,64.2,30.22,SSE,166,0.0,5.0,77,0.00,,,0.00,Wunderground v.1.15,2013-08-26 23:30:00,
2013-08-26 19:35:00,71.2,64.0,30.22,SSE,166,0.0,5.0,78,0.00,,,0.00,Wunderground v.1.15,2013-08-26 23:35:00,
2013-08-26 19:40:00,70.9,64.1,30.22,SSE,166,0.0,5.0,79,0.00,,,0.00,Wunderground v.1.15,2013-08-26 23:40:00,
2013-08-26 19:50:00,69.9,63.1,30.22,SSE,166,0.0,5.0,79,0.00,,,0.00,Wunderground v.1.15,2013-08-26 23:50:00,
2013-08-26 19:55:00,69.7,62.9,30.22,SSE,166,0.0,5.0,79,0.00,,,0.00,Wunderground v.1.15,2013-08-26 23:55:00,
2013-08-26 20:05:00,69.0,62.6,30.22,SSE,166,0.0,5.0,80,0.00,,,0.00,Wunderground v.1.15,2013-08-27 00:05:00,
2013-08-26 20:10:00,68.6,62.5,30.22,SSE,166,0.0,5.0,81,0.00,,,0.00,Wunderground v.1.15,2013-08-27 00:10:00,
2013-08-26 20:15:00,68.0,61.9,30.22,SSE,166,0.0,5.0,81,0.00,,,0.00,Wunderground v.1.15,2013-08-27 00:15:00,
2013-08-26 20:20:00,67.6,61.6,30.22,SSE,166,0.0,5.0,81,0.00,,,0.00,Wunderground v.1.15,2013-08-27 00:20:00,
2013-08-26 20:25:00,67.4,61.7,30.22,SSE,166,0.0,5.0,82,0.00,,,0.00,Wunderground v.1.15,2013-08-27 00:25:00,
2013-08-26 20:30:00,67.0,61.3,30.22,SSE,166,0.0,5.0,82,0.00,,,0.00,Wunderground v.1.15,2013-08-27 00:30:00,
2013-08-26 20:35:00,66.8,61.5,30.22,SSE,166,0.0,5.0,83,0.00,,,0.00,Wunderground v.1.15,2013-08-27 00:35:00,
2013-08-26 20:40:00,66.7,61.4,30.22,SSE,166,0.0,5.0,83,0.00,,,0.00,Wunderground v.1.15,2013-08-27 00:40:00,
2013-08-26 20:45:00,66.4,61.1,30.21,SSE,166,0.0,5.0,83,0.00,,,0.00,Wunderground v.1.15,2013-08-27 00:45:00,
2013-08-26 20:55:00,66.1,61.1,30.22,SSE,166,0.0,5.0,84,0.00,,,0.00,Wunderground v.1.15,2013-08-27 00:55:00,
2013-08-26 21:05:00,65.8,60.5,30.22,SSE,166,0.0,5.0,83,0.00,,,0.00,Wunderground v.1.15,2013-08-27 01:05:00,
2013-08-26 21:10:00,65.7,60.1,30.22,SSE,166,0.0,5.0,82,0.00,,,0.00,Wunderground v.1.15,2013-08-27 01:10:00,
2013-08-26 21:15:00,65.7,60.1,30.22,SSE,166,0.0,5.0,82,0.00,,,0.00,Wunderground v.1.15,2013-08-27 01:15:00,
2013-08-26 21:20:00,65.7,60.1,30.22,SSE,166,0.0,5.0,82,0.00,,,0.00,Wunderground v.1.15,2013-08-27 01:20:00,
2013-08-26 21:30:00,65.7,59.7,30.22,SSE,166,0.0,5.0,81,0.00,,,0.00,Wunderground v.1.15,2013-08-27 01:30:00,
2013-08-26 21:40:00,65.8,60.2,30.22,SSE,166,0.0,5.0,82,0.00,,,0.00,Wunderground v.1.15,2013-08-27 01:40:00,
2013-08-26 21:45:00,65.8,59.5,30.23,SSE,166,0.0,5.0,80,0.00,,,0.00,Wunderground v.1.15,2013-08-27 01:45:00,
2013-08-26 21:50:00,65.8,59.8,30.22,SSE,166,0.0,5.0,81,0.00,,,0.00,Wunderground v.1.15,2013-08-27 01:50:00,
2013-08-26 21:55:00,65.8,59.5,30.22,SSE,166,0.0,5.0,80,0.00,,,0.00,Wunderground v.1.15,2013-08-27 01:55:00,
2013-08-26 22:05:00,65.7,59.4,30.23,SSE,166,0.0,5.0,80,0.00,,,0.00,Wunderground v.1.15,2013-08-27 02:05:00,
2013-08-26 22:10:00,65.7,59.0,30.23,SSE,166,0.0,5.0,79,0.00,,,0.00,Wunderground v.1.15,2013-08-27 02:10:00,
2013-08-26 22:15:00,65.7,59.4,30.23,SSE,166,0.0,5.0,80,0.00,,,0.00,Wunderground v.1.15,2013-08-27 02:15:00,
2013-08-26 22:20:00,65.7,59.4,30.23,SSE,166,0.0,5.0,80,0.00,,,0.00,Wunderground v.1.15,2013-08-27 02:20:00,
2013-08-26 22:25:00,65.7,59.4,30.23,SSE,166,0.0,5.0,80,0.00,,,0.00,Wunderground v.1.15,2013-08-27 02:25:00,
2013-08-26 22:30:00,65.7,59.4,30.23,SSE,166,0.0,5.0,80,0.00,,,0.00,Wunderground v.1.15,2013-08-27 02:30:00,
2013-08-26 22:35:00,65.6,59.6,30.24,SSE,166,0.0,5.0,81,0.00,,,0.00,Wunderground v.1.15,2013-08-27 02:35:00,
2013-08-26 22:40:00,65.5,59.9,30.24,SSE,166,0.0,5.0,82,0.00,,,0.00,Wunderground v.1.15,2013-08-27 02:40:00,
2013-08-26 22:45:00,65.2,59.6,30.24,SSE,166,0.0,5.0,82,0.00,,,0.00,Wunderground v.1.15,2013-08-27 02:45:00,
2013-08-26 22:55:00,64.8,59.5,30.24,SSE,166,0.0,5.0,83,0.00,,,0.00,Wunderground v.1.15,2013-08-27 02:55:00,
2013-08-26 23:05:00,64.6,59.3,30.24,SSE,166,0.0,5.0,83,0.00,,,0.00,Wunderground v.1.15,2013-08-27 03:05:00,
2013-08-26 23:10:00,64.5,59.6,30.24,SSE,166,0.0,5.0,84,0.00,,,0.00,Wunderground v.1.15,2013-08-27 03:10:00,
2013-08-26 23:15:00,64.5,59.6,30.24,SSE,166,0.0,5.0,84,0.00,,,0.00,Wunderground v.1.15,2013-08-27 03:15:00,
2013-08-26 23:20:00,64.5,59.9,30.24,SSE,166,0.0,5.0,85,0.00,,,0.00,Wunderground v.1.15,2013-08-27 03:20:00,
2013-08-26 23:25:00,64.4,59.8,30.24,SSE,166,0.0,5.0,85,0.00,,,0.00,Wunderground v.1.15,2013-08-27 03:25:00,
2013-08-26 23:30:00,64.3,60.0,30.24,SSE,166,0.0,5.0,86,0.00,,,0.00,Wunderground v.1.15,2013-08-27 03:30:00,
2013-08-26 23:40:00,64.4,59.8,30.24,SSE,166,0.0,5.0,85,0.00,,,0.00,Wunderground v.1.15,2013-08-27 03:40:00,
2013-08-26 23:45:00,64.4,59.8,30.24,SSE,166,0.0,5.0,85,0.00,,,0.00,Wunderground v.1.15,2013-08-27 03:45:00,
2013-08-26 23:50:00,64.3,59.7,30.24,SSE,166,0.0,5.0,85,0.00,,,0.00,Wunderground v.1.15,2013-08-27 03:50:00,
2013-08-26 23:55:00,64.1,59.5,30.23,SSE,166,0.0,5.0,85,0.00,,,0.00,Wunderground v.1.15,2013-08-27 03:55:00,